Location: Afon Cefni
(53.2000°N, 4.3833°W)
Time: 01:53:57
(UTC+00:00)

Daily predictions for brighter satellites

Satellite Brightness Start Highest point End
(mag) Time Altitude Azimuth Time Altitude Azimuth Time Altitude Azimuth
ATLAS 2AS CENTAUR R/B 4.4 02:52:20 31° ENE 02:52:20 31° ENE 02:56:35 10° NE
CZ-4C R/B 3.9 03:47:08 29° ENE 03:47:08 29° ENE 03:50:26 10° NE
Cosmos 1844 Rocket 4.1 04:02:42 35° E 04:02:42 35° E 04:06:43 10° NE
ATLAS 5 CENTAUR R/B 4.3 04:17:18 12° ESE 04:18:03 13° ESE 04:20:00 10° E
NOSS 3-4 (A) 4.1 04:22:14 49° NNE 04:22:14 49° NNE 04:27:02 10° NE
NOSS 3-4 (C) 4.1 04:22:19 49° NNE 04:22:19 49° NNE 04:27:08 10° NE
NOSS 3-1 (C) 4.4 04:22:37 44° N 04:23:34 46° NNE 04:31:16 10° E
Cosmos 2297 Rocket 4.4 04:29:28 14° N 04:29:28 14° N 04:30:49 10° NNE
Cosmos 2263 Rocket 3.8 04:33:14 24° NNE 04:33:14 24° NNE 04:35:40 10° NNE
Cosmos 1844 4.1 04:37:53 57° ESE 04:37:53 57° ESE 04:43:22 10° NE
ATLAS 2AS CENTAUR R/B 2.9 04:39:47 74° WNW 04:40:06 75° NW 04:47:52 10° NE
Meteor 1-10 Rocket 4.4 04:41:21 66° ENE 04:41:21 66° ENE 04:46:54 10° SSE
SJ 16-02 4.0 04:56:10 10° NNE 04:56:10 10° NNE 04:56:15 10° NNE
COSMOS 2455 3.6 04:49:17 29° S 04:52:04 51° ESE 04:57:54 10° NE
Cosmos 2344 4.3 04:55:57 50° W 04:57:58 56° SW 05:10:20 10° SSE
ALOS 3.0 04:53:32 10° NNE 04:56:56 46° NE 04:56:56 46° NE
Cosmos 1833 Rocket 3.0 04:57:52 54° N 04:58:54 64° NE 05:04:27 10° SE
Cosmos 2082 Rocket 3.1 05:01:52 32° N 05:04:03 46° NE 05:09:33 10° ESE
SL-4 R/B 3.8 05:06:43 24° SE 05:06:43 24° SE 05:08:26 10° SE
Cosmos 2074 Rocket 3.9 05:01:43 10° S 05:07:55 90° WNW 05:14:12 10° N
Lacrosse 5 2.0 05:12:41 62° N 05:12:41 62° N 05:17:25 10° ENE
EO 1 Delta rocket 4.2 05:14:55 10° SSE 05:19:28 62° ENE 05:23:42 13° N
ERBS 4.1 05:21:36 30° ENE 05:21:36 30° ENE 05:23:35 10° E
ATLAS 3B R/B 4.4 05:23:49 16° SSW 05:23:49 16° SSW 05:25:44 10° SSW
USA 307 4.0 05:22:34 36° S 05:22:34 36° S 05:25:38 10° SE
CZ-4B R/B 3.9 05:22:52 10° NNE 05:27:14 51° E 05:31:25 10° S
USA 308 3.9 05:28:59 36° S 05:28:59 36° S 05:32:12 10° SE
CZ-4C R/B 2.3 05:32:19 51° WNW 05:33:06 55° NNW 05:39:33 10° NE
Cosmos 2184 Rocket 3.9 05:27:18 10° SSW 05:33:37 66° WNW 05:40:00 10° N
FALCON 9 DEB 4.0 05:35:47 45° E 05:35:47 45° E 05:38:07 10° E
Cosmos 2278 Rocket 3.4 05:30:17 10° S 05:35:35 43° ESE 05:40:56 10° NE
COSMO-SKYMED 1 2.6 05:33:27 10° S 05:37:21 60° SW 05:37:21 60° SW
Cosmos 2227 Rocket 4.2 05:39:20 13° NNW 05:40:01 13° N 05:42:37 10° NNE
deb Chang Zheng 4 3.4 05:35:58 10° NNE 05:40:21 87° WNW 05:44:44 10° SSW
Cosmos 1805 Rocket 3.5 05:37:20 10° S 05:41:48 89° WNW 05:46:18 10° N
Cosmos 1898 Rocket 4.1 05:42:22 39° NW 05:42:22 39° NW 05:46:52 10° NNE
Cosmos 494 Rocket 3.8 05:39:47 37° NNW 05:41:52 85° WSW 05:46:59 10° SSE
Cosmos 1844 Rocket 2.9 05:44:24 45° WNW 05:45:18 49° NW 05:50:50 10° NNE
COSMOS 2406 3.3 05:44:31 42° WNW 05:46:13 58° WSW 05:51:51 10° SSE
SL-24 R/B 4.3 05:41:09 10° S 05:46:19 64° WSW 05:47:54 40° NW
Cosmos 1937 Rocket 3.7 05:47:22 45° WNW 05:47:34 45° NW 05:52:37 10° NNE
Cosmos 1666 Rocket 4.1 05:45:48 10° S 05:50:02 58° E 05:54:21 10° NNE
USA 305 4.0 05:53:05 29° SW 05:53:05 29° SW 05:56:46 10° SSE
Cosmos 1242 Rocket 2.8 05:55:26 27° N 05:57:20 70° ENE 06:01:00 10° SSE
RESURS DK-1 4.0 05:59:02 21° NNW 05:59:02 21° NNW 06:01:12 10° NNE
H-2A R/B 4.2 05:55:17 10° NNE 05:58:44 31° E 06:02:10 10° SSE
ATLAS 5 CENTAUR R/B 1.6 05:58:53 21° SW 06:01:39 76° SE 06:06:24 10° NE
USA 306 4.1 06:01:36 26° SW 06:01:51 26° SW 06:05:25 10° SSE
Nadezhda 3 Rocket 4.3 05:59:30 10° NNW 06:05:23 43° W 06:11:11 10° SSW
USA 229 DEB 3.9 06:01:24 23° NW 06:06:15 79° NE 06:13:53 10° SE
MOS 1 Rocket 3.4 06:01:15 10° S 06:06:20 77° WSW 06:11:44 10° NNW
USA 229 3.9 06:01:31 23° NW 06:06:21 79° NE 06:13:59 10° SE
CZ-2C R/B 3.3 06:02:51 10° SE 06:08:04 53° ENE 06:13:12 10° N
Meteor 1-31 Rocket 4.1 06:05:31 10° N 06:07:20 24° NNW 06:07:20 24° NNW
Cosmos 1048 Rocket 4.5 06:08:30 32° WNW 06:09:57 39° WSW 06:14:43 10° S
Cosmos 1633 Rocket 3.2 06:05:35 10° S 06:09:59 75° E 06:14:24 10° NNE
FALCON 9 DEB 2.9 06:10:17 59° W 06:10:47 80° S 06:14:00 10° ESE
ADEOS 3.9 06:07:02 10° N 06:11:56 41° WNW 06:16:48 10° SW
USA 81 4.0 06:06:47 10° S 06:12:03 87° E 06:17:22 10° N
NOSS 3-4 (A) 4.3 06:09:41 26° WNW 06:12:20 37° NNW 06:18:37 10° NE
NOSS 3-4 (C) 4.3 06:09:47 26° WNW 06:12:26 37° NNW 06:18:42 10° NE
H-2A R/B 2.7 06:09:05 10° NNE 06:13:00 86° E 06:16:52 10° SSW
FENGYUN 3A 4.1 06:08:12 10° N 06:13:07 36° WNW 06:17:59 10° SW
Cosmos 2297 Rocket 4.3 06:11:16 10° NNW 06:13:44 13° N 06:16:20 10° NNE
Cosmos 2218 Rocket 4.3 06:08:48 10° S 06:14:58 70° E 06:21:07 10° NNE
Cosmos 1125 Rocket 3.6 06:09:56 10° SSW 06:15:08 81° ESE 06:20:22 10° NNE
NOSS 3-1 (C) 4.0 06:10:01 22° NW 06:15:09 84° SW 06:23:39 10° SE
Cosmos 2263 Rocket 3.8 06:14:56 17° NNW 06:15:39 17° NNW 06:19:23 10° NNE
Meteor 1-27 Rocket 4.1 06:11:32 15° NNW 06:16:02 42° W 06:21:32 10° SSW
FALCON 9 DEB 2.9 06:15:49 50° W 06:16:32 79° S 06:19:46 10° ESE
Cosmos 1269 Rocket 3.9 06:13:42 16° NNW 06:17:56 83° WSW 06:23:13 10° SSE
Cosmos 1356 3.4 06:16:18 10° SSW 06:19:38 51° WNW 06:23:00 10° N
NOSS 3-1 (A) 4.1 06:15:02 20° NW 06:20:27 80° NE 06:28:54 10° SE
PSLV R/B 3.8 06:17:15 10° NNE 06:21:05 78° ESE 06:24:49 10° S
Cosmos 1844 4.2 06:19:49 25° W 06:22:18 36° NW 06:27:30 10° NNE
Cosmos 962 Rocket 4.5 06:17:24 10° SSW 06:23:44 67° WNW 06:30:05 10° N
deb Kosmos-1763 4.0 06:22:55 30° NW 06:24:30 61° WSW 06:28:04 10° SSE
SJ-12 4.3 06:21:00 10° N 06:24:46 37° WNW 06:28:31 10° SW
Cosmos 1707 Rocket 4.1 06:24:39 24° NW 06:26:33 36° W 06:30:30 10° SSW
ATLAS 2AS CENTAUR R/B 3.5 06:27:15 21° WNW 06:32:13 42° NNW 06:39:20 10° NE
Cosmos 2242 Rocket 3.8 06:29:13 10° N 06:33:39 72° ENE 06:38:03 10° SSE
ASTRO F (AKARI) 4.1 06:30:33 10° N 06:33:40 64° WNW 06:36:52 10° SSW
Cosmos 372 Rocket 4.4 06:29:34 11° WSW 06:34:05 37° NW 06:38:52 10° NNE
CZ-4B DEB 4.3 06:28:43 10° NNE 06:34:14 79° ESE 06:39:43 10° SSW
Cosmos 2150 Rocket 4.0 06:29:50 10° SW 06:35:01 57° WNW 06:40:10 10° NNE
ALOS 3.4 06:31:42 10° N 06:35:13 21° WNW 06:35:25 21° WNW
Spot 2 4.4 06:32:06 10° NNE 06:37:16 87° WNW 06:42:15 10° SSW
COSMOS 2455 3.1 06:32:32 11° WSW 06:38:07 48° NW 06:44:00 10° NE
Cosmos 2298 Rocket 4.2 06:33:28 10° SW 06:38:38 51° WNW 06:43:50 10° NNE
Sich 1 3.6 06:35:32 10° SW 06:39:37 35° WNW 06:43:43 10° N
FALCON 9 DEB 3.1 06:39:24 26° W 06:41:03 67° SSW 06:44:15 10° ESE
Okean 1 3.3 06:37:10 10° NNW 06:41:12 62° W 06:45:12 10° S
USA 290 3.1 06:40:26 25° WNW 06:41:20 30° WSW 06:44:12 10° S
Cosmos 1833 Rocket 3.6 06:39:36 19° WNW 06:42:27 29° WSW 06:47:11 10° SSW
Meteor 1-19 Rocket 4.1 06:37:05 10° NNW 06:42:32 73° W 06:47:54 10° S
SL-4 R/B 4.0 06:42:19 12° WSW 06:43:36 14° SW 06:45:33 10° S
MOS 1-B 4.5 06:38:54 10° NNE 06:44:46 83° ESE 06:50:36 10° SSW
Cosmos 864 Rocket 4.5 06:38:36 10° SSW 06:44:57 82° W 06:51:20 10° N
Cosmos 1703 Rocket 3.7 06:41:28 10° N 06:45:50 77° ENE 06:50:10 10° SSE
Cosmos 2082 Rocket 2.6 06:43:44 15° NW 06:48:11 43° WSW 06:53:32 10° S
SL-8 Rocket 4.0 06:44:21 10° SSW 06:50:27 62° WNW 06:56:37 10° N
Cosmos 1602 3.7 06:47:15 10° SSW 06:51:10 69° WNW 06:55:07 10° N
CZ-4 R/B 4.4 06:48:40 10° NE 06:51:45 19° E 06:54:49 10° SE
Cosmos 1959 Rocket 4.5 06:47:19 10° SSW 06:53:34 70° WNW 06:59:57 10° N
CZ-4B R/B 3.5 06:48:27 10° NNE 06:53:52 70° ESE 06:59:20 10° S
Meteor 1-18 Rocket 4.3 06:50:09 10° NNW 06:55:44 59° W 07:01:13 10° S
Lacrosse 5 2.1 06:51:54 16° WNW 06:55:50 59° N 07:00:51 10° E
ERBS 2.4 06:54:29 19° WNW 06:56:42 64° SSW 06:59:59 10° SE
Cosmos 1470 Rocket 3.5 06:52:54 10° SSW 06:57:15 67° WNW 07:01:36 10° N
PAYLOAD B 4.2 06:54:25 10° NNE 06:59:58 82° WNW 07:05:28 10° SSW
Geosat 4.2 06:55:17 10° SE 07:00:17 72° NE 07:05:20 10° NNW
Meteor 1-14 Rocket 4.4 06:55:33 10° S 07:01:18 84° E 07:07:13 10° NNE
Cosmos 1818 3.8 06:56:24 10° SSW 07:01:50 75° SE 07:07:18 10° NE
CZ-4B R/B 4.1 06:58:22 10° N 07:02:02 25° WNW 07:05:36 10° WSW
Cosmos 1727 Rocket 4.1 06:58:32 10° NNW 07:04:45 60° W 07:10:59 10° S
Meteor 1-25 Rocket 4.3 07:00:11 10° SSW 07:05:38 56° WNW 07:11:09 10° N
Cosmos 1437 3.1 07:04:01 10° N 07:06:57 57° ENE 07:09:51 10° SSE
Cosmos 1821 Rocket 4.3 07:01:23 10° S 07:07:28 72° E 07:13:37 10° NNE
Cosmos 2341 Rocket 4.4 07:03:19 10° SW 07:09:05 39° WNW 07:14:56 10° N
FALCON 9 DEB 3.6 07:08:03 13° W 07:10:45 47° SSW 07:13:51 10° SE
Okean O Rocket 1.6 07:08:50 10° NNE 07:13:19 80° WNW 07:17:46 10° SSW
YAOGAN 6 3.3 07:13:18 10° N 07:16:24 30° WNW 07:19:30 10° SW
Cosmos 2285 Rocket 4.3 07:10:00 10° SSW 07:16:25 77° ESE 07:22:52 10° NNE
Envisat 3.3 07:11:52 10° N 07:16:44 46° WNW 07:21:33 10° SW
Cosmos 2278 Rocket 2.5 07:14:16 10° WSW 07:19:42 46° NW 07:25:11 10° NNE
NOSS 2-1 (C) 3.1 07:16:30 10° SW 07:19:48 76° SE 07:23:29 10° NE
NOAA 6 4.2 07:15:33 10° N 07:20:28 49° WNW 07:25:23 10° SW
Cosmos 1666 3.5 07:16:59 10° S 07:20:40 56° E 07:24:24 10° NNE
SME Rocket 4.1 07:17:49 10° SE 07:21:55 55° ENE 07:27:37 10° NNW
DMSP B5D2-2 4.2 07:16:53 10° S 07:22:00 56° W 07:27:09 10° NNW
CZ-4C R/B 3.4 07:17:33 10° WNW 07:22:56 34° N 07:29:20 10° ENE
Cosmos 909 Rocket 4.3 07:17:29 10° NW 07:23:38 59° WSW 07:30:19 10° SSE
SMAP 3.1 07:19:04 10° N 07:23:40 59° WNW 07:28:14 10° SSW
NOSS 2-1 (D) 3.0 07:22:01 10° SW 07:25:20 84° SE 07:29:02 10° NE
Cosmos 1500 3.1 07:22:17 10° SSW 07:25:59 63° WNW 07:29:46 10° N
Cosmos 2227 Rocket 4.1 07:23:01 10° NNW 07:26:36 17° NNE 07:30:10 10° ENE
Cosmos 1933 Rocket 3.8 07:22:28 10° SSW 07:26:48 51° WNW 07:31:11 10° N
SL-24 R/B 4.1 07:22:27 10° NNE 07:27:04 83° WNW 07:31:23 10° SSW
Cosmos 1238 Rocket 2.1 07:24:34 10° S 07:27:31 88° WNW 07:30:40 10° N
Cosmos 1844 Rocket 4.2 07:26:47 10° WNW 07:30:38 18° NNW 07:34:30 10° NNE
Cosmos 407 Rocket 4.2 07:28:36 10° NNW 07:33:53 54° ENE 07:39:07 10° SE
H-2A R/B 3.0 07:30:50 10° N 07:34:13 30° WNW 07:37:35 10° SW
Cosmos 1271 Rocket 3.4 07:30:51 10° NNW 07:34:22 35° W 07:37:55 10° SSW
Cosmos 1943 Rocket 2.9 07:30:09 10° SSW 07:35:32 58° ESE 07:40:57 10° NE
YAOGAN 1 4.2 07:32:13 10° NNE 07:36:19 40° E 07:40:23 10° SSE
